Location: Huntsville
(41.2590°N, 111.7678°W)
Time: 06:01:56
(UTC+00:00)

N. Korean satellite - Pass Details

Date: 10 December 2021
Orbit: 447 x 491 km, 97.3° (Epoch: 25 January)

Event Time Altitude Azimuth Distance (km) Brightness Sun altitude
Rises 12:56:02 0° 7° (N) 2,458 10.1 -19.2°
Enters shadow 12:57:31 - 5° (N) 1,821 9.4 -19.0°
Exits shadow 13:00:41 45° 334° (NNW) 626 6.8 -18.4°
Maximum altitude 13:01:24 57° 285° (WNW) 535 6.4 -18.3°
Drops below altitude 10° 13:04:43 10° 206° (SSW) 1,577 9.0 -17.7°
Sets 13:06:46 0° 202° (SSW) 2,449 10.1 -17.3°
